"read_dt","SO2 (ppb)","flags","PMT voltage (V)","lamp voltage (V)","lamp intensity (Hz)","internal temp (C)","react chamber temp (C)","sample flow (l/min)","pres (mmHg)","SO2 bkg (ppb)","SO2 coefficient"
2016-05-20 00:00:00,1855E-3,5C000400,-0724,0834,12148,029.6,045.5,0.252,758.8,01.16,0.508
2016-05-20 00:01:00,1892E-3,5C000400,-0724,0834,12004,029.6,045.5,0.252,758.8,01.16,0.508
2016-05-20 00:02:00,1954E-3,5C000400,-0724,0834,12071,029.5,045.5,0.252,758.8,01.16,0.508
2016-05-20 00:03:00,2005E-3,5C000400,-0724,0834,12198,029.6,045.5,0.252,758.8,01.16,0.508
2016-05-20 00:04:00,1912E-3,5C000400,-0724,0835,12199,029.6,045.5,0.252,758.8,01.16,0.508
2016-05-20 00:05:00,1874E-3,5C000400,-0724,0834,12189,029.5,045.5,0.252,758.8,01.16,0.508
2016-05-20 00:06:00,2013E-3,5C000400,-0724,0834,12114,029.6,045.5,0.252,758.8,01.16,0.508
2016-05-20 00:07:00,1991E-3,5C000400,-0724,0834,12110,029.6,045.5,0.252,758.8,01.16,0.508
2016-05-20 00:08:00,1893E-3,5C000400,-0724,0834,12041,029.6,045.5,0.253,758.8,01.16,0.508
2016-05-20 00:09:00,2015E-3,5C000400,-0724,0834,12213,029.6,045.5,0.253,758.8,01.16,0.508
2016-05-20 00:10:00,1878E-3,5C000400,-0724,0834,12081,029.6,045.5,0.252,758.8,01.16,0.508
2016-05-20 00:11:00,1880E-3,5C000400,-0724,0835,12109,029.7,045.5,0.252,758.8,01.16,0.508
2016-05-20 00:12:00,2052E-3,5C000400,-0724,0834,12015,029.6,045.5,0.252,758.8,01.16,0.508
2016-05-20 00:13:00,1801E-3,5C000400,-0724,0834,11975,029.7,045.5,0.252,758.8,01.16,0.508
2016-05-20 00:14:00,2023E-3,5C000400,-0724,0835,11966,029.7,045.5,0.252,758.8,01.16,0.508
2016-05-20 00:15:00,1983E-3,5C000400,-0724,0834,12021,029.6,045.5,0.252,758.8,01.16,0.508
2016-05-20 00:16:00,1924E-3,5C000400,-0724,0834,12064,029.7,045.5,0.252,758.8,01.16,0.508
2016-05-20 00:17:00,1818E-3,5C000400,-0724,0834,12160,029.6,045.5,0.252,758.8,01.16,0.508
2016-05-20 00:18:00,1883E-3,5C000400,-0724,0833,12119,029.7,045.5,0.252,758.8,01.16,0.508
2016-05-20 00:19:00,1906E-3,5C000400,-0724,0834,12188,029.7,045.5,0.252,758.8,01.16,0.508
2016-05-20 00:20:00,1800E-3,5C000400,-0724,0834,12200,029.7,045.5,0.252,758.8,01.16,0.508
2016-05-20 00:21:00,1938E-3,5C000400,-0724,0834,12220,029.7,045.5,0.252,758.8,01.16,0.508
2016-05-20 00:22:00,1964E-3,5C000400,-0724,0833,12304,029.7,045.5,0.252,758.8,01.16,0.508
2016-05-20 00:23:00,1755E-3,5C000400,-0724,0834,12146,029.7,045.5,0.252,758.8,01.16,0.508
2016-05-20 00:24:00,1777E-3,5C000400,-0724,0834,12248,029.7,045.5,0.252,758.8,01.16,0.508
2016-05-20 00:25:00,1886E-3,5C000400,-0724,0834,12301,029.7,045.5,0.252,758.8,01.16,0.508
2016-05-20 00:26:00,2043E-3,5C000400,-0724,0834,12158,029.7,045.5,0.252,758.8,01.16,0.508
2016-05-20 00:27:00,1894E-3,5C000400,-0724,0835,12260,029.7,045.5,0.252,758.8,01.16,0.508
2016-05-20 00:28:00,2012E-3,5C000400,-0724,0834,12132,029.7,045.5,0.252,758.8,01.16,0.508
2016-05-20 00:29:00,1923E-3,5C000400,-0724,0834,12120,029.7,045.5,0.252,758.8,01.16,0.508
2016-05-20 00:30:00,1938E-3,5C000400,-0724,0835,12189,029.7,045.5,0.252,758.8,01.16,0.508
2016-05-20 00:31:00,1854E-3,5C000400,-0724,0834,12065,029.7,045.5,0.252,758.7,01.16,0.508
2016-05-20 00:32:00,1919E-3,5C000400,-0724,0834,12067,029.7,045.5,0.252,758.7,01.16,0.508
2016-05-20 00:33:00,1925E-3,5C000400,-0724,0835,12033,029.8,045.5,0.252,758.7,01.16,0.508
2016-05-20 00:34:00,1866E-3,5C000400,-0724,0834,12078,029.8,045.5,0.251,758.7,01.16,0.508
2016-05-20 00:35:00,1972E-3,5C000400,-0724,0834,12060,029.8,045.5,0.252,758.7,01.16,0.508
2016-05-20 00:36:00,1993E-3,5C000400,-0724,0834,12298,029.8,045.5,0.252,758.7,01.16,0.508
2016-05-20 00:37:00,1858E-3,5C000400,-0724,0833,12187,029.8,045.5,0.252,758.7,01.16,0.508
2016-05-20 00:38:00,1974E-3,5C000400,-0724,0833,12134,029.8,045.5,0.252,758.7,01.16,0.508
2016-05-20 00:39:00,1882E-3,5C000400,-0724,0834,12171,029.8,045.5,0.252,758.7,01.16,0.508
2016-05-20 00:40:00,1965E-3,5C000400,-0724,0835,12188,029.8,045.5,0.252,758.7,01.16,0.508
2016-05-20 00:41:00,1922E-3,5C000400,-0724,0835,12115,029.8,045.5,0.251,758.7,01.16,0.508
2016-05-20 00:42:00,1927E-3,5C000400,-0724,0834,12143,029.8,045.5,0.252,758.7,01.16,0.508
2016-05-20 00:43:00,1876E-3,5C000400,-0724,0833,12216,029.8,045.5,0.252,758.7,01.16,0.508
2016-05-20 00:44:00,1958E-3,5C000400,-0724,0834,12139,029.8,045.5,0.252,758.7,01.16,0.508
2016-05-20 00:45:00,2029E-3,5C000400,-0724,0834,12257,029.8,045.5,0.252,758.7,01.16,0.508
2016-05-20 00:46:00,1906E-3,5C000400,-0724,0835,12280,029.8,045.5,0.252,758.7,01.16,0.508
2016-05-20 00:47:00,1798E-3,5C000400,-0724,0834,12085,029.9,045.5,0.251,758.7,01.16,0.508
2016-05-20 00:48:00,1867E-3,5C000400,-0724,0833,12098,029.9,045.5,0.251,758.7,01.16,0.508
2016-05-20 00:49:00,2005E-3,5C000400,-0724,0834,12054,029.9,045.5,0.252,758.7,01.16,0.508
2016-05-20 00:50:00,1946E-3,5C000400,-0724,0834,12191,029.9,045.5,0.252,758.7,01.16,0.508
2016-05-20 00:51:00,2056E-3,5C000400,-0724,0834,12176,029.9,045.5,0.252,758.7,01.16,0.508
2016-05-20 00:52:00,1872E-3,5C000400,-0724,0834,12266,029.9,045.5,0.252,758.7,01.16,0.508
2016-05-20 00:53:00,1858E-3,5C000400,-0724,0834,12105,029.9,045.5,0.252,758.7,01.16,0.508
2016-05-20 00:54:00,1798E-3,5C000400,-0724,0833,12106,029.9,045.5,0.251,758.7,01.16,0.508
2016-05-20 00:55:00,1903E-3,5C000400,-0724,0834,12169,029.9,045.5,0.251,758.7,01.16,0.508
2016-05-20 00:56:00,1965E-3,5C000400,-0724,0834,12097,029.9,045.5,0.252,758.6,01.16,0.508
2016-05-20 00:57:00,1908E-3,5C000400,-0724,0834,12139,029.9,045.5,0.252,758.6,01.16,0.508
2016-05-20 00:58:00,1943E-3,5C000400,-0724,0834,12241,029.9,045.5,0.252,758.6,01.16,0.508
2016-05-20 00:59:00,1899E-3,5C000400,-0724,0834,12095,029.9,045.5,0.252,758.6,01.16,0.508
2016-05-20 01:00:00,1968E-3,5C000400,-0724,0834,12118,030.0,045.5,0.252,758.6,01.16,0.508
2016-05-20 01:01:00,1825E-3,5C000400,-0724,0834,12101,029.9,045.5,0.251,758.6,01.16,0.508
2016-05-20 01:02:00,1822E-3,5C000400,-0724,0834,12257,029.9,045.5,0.251,758.6,01.16,0.508
2016-05-20 01:03:00,2027E-3,5C000400,-0724,0834,12046,030.0,045.5,0.251,758.6,01.16,0.508
2016-05-20 01:04:00,1840E-3,5C000400,-0724,0835,12029,030.0,045.5,0.251,758.6,01.16,0.508
2016-05-20 01:05:00,1925E-3,5C000400,-0724,0835,12192,030.0,045.5,0.252,758.6,01.16,0.508
2016-05-20 01:06:00,1932E-3,5C000400,-0724,0834,12244,030.0,045.5,0.252,758.6,01.16,0.508
2016-05-20 01:07:00,1919E-3,5C000400,-0724,0833,12182,030.0,045.5,0.252,758.6,01.16,0.508
2016-05-20 01:08:00,1827E-3,5C000400,-0724,0834,12111,030.0,045.5,0.252,758.5,01.16,0.508
2016-05-20 01:09:00,1896E-3,5C000400,-0724,0834,12112,030.0,045.5,0.251,758.5,01.16,0.508
2016-05-20 01:10:00,1920E-3,5C000400,-0724,0835,12137,030.0,045.5,0.251,758.5,01.16,0.508
2016-05-20 01:11:00,1874E-3,5C000400,-0724,0835,12244,030.0,045.5,0.252,758.5,01.16,0.508
2016-05-20 01:12:00,2014E-3,5C000400,-0724,0834,12265,030.0,045.5,0.251,758.5,01.16,0.508
2016-05-20 01:13:00,1813E-3,5C000400,-0724,0835,12238,030.0,045.5,0.252,758.5,01.16,0.508
2016-05-20 01:14:00,1997E-3,5C000400,-0724,0834,12010,030.0,045.5,0.252,758.5,01.16,0.508
2016-05-20 01:15:00,1921E-3,5C000400,-0724,0834,12024,030.0,045.5,0.251,758.5,01.16,0.508
2016-05-20 01:16:00,1997E-3,5C000400,-0724,0833,12108,030.0,045.5,0.251,758.5,01.16,0.508
2016-05-20 01:17:00,1878E-3,5C000400,-0724,0835,12213,030.1,045.5,0.251,758.5,01.16,0.508
2016-05-20 01:18:00,1760E-3,5C000400,-0724,0834,12104,030.1,045.5,0.251,758.4,01.16,0.508
2016-05-20 01:19:00,1899E-3,5C000400,-0724,0834,12136,030.1,045.5,0.251,758.4,01.16,0.508
2016-05-20 01:20:00,1922E-3,5C000400,-0724,0834,12169,030.1,045.5,0.251,758.4,01.16,0.508
2016-05-20 01:21:00,1884E-3,5C000400,-0724,0834,12112,030.1,045.5,0.251,758.4,01.16,0.508
2016-05-20 01:22:00,1877E-3,5C000400,-0724,0834,12203,030.1,045.5,0.251,758.4,01.16,0.508
2016-05-20 01:23:00,1844E-3,5C000400,-0724,0834,12198,030.1,045.5,0.251,758.4,01.16,0.508
2016-05-20 01:24:00,1960E-3,5C000400,-0724,0835,12025,030.1,045.5,0.251,758.4,01.16,0.508
2016-05-20 01:25:00,1896E-3,5C000400,-0724,0834,12251,030.2,045.5,0.251,758.4,01.16,0.508
2016-05-20 01:26:00,1892E-3,5C000400,-0724,0833,12083,030.2,045.5,0.251,758.4,01.16,0.508
2016-05-20 01:27:00,1890E-3,5C000400,-0724,0834,12200,030.2,045.5,0.251,758.4,01.16,0.508
2016-05-20 01:28:00,1947E-3,5C000400,-0724,0834,12115,030.2,045.5,0.251,758.4,01.16,0.508
2016-05-20 01:29:00,2071E-3,5C000400,-0724,0834,12018,030.2,045.5,0.251,758.4,01.16,0.508
2016-05-20 01:30:00,1821E-3,5C000400,-0724,0834,12356,030.2,045.5,0.251,758.4,01.16,0.508
2016-05-20 01:31:00,1945E-3,5C000400,-0724,0834,12027,030.2,045.5,0.251,758.4,01.16,0.508
2016-05-20 01:32:00,1951E-3,5C000400,-0724,0834,12150,030.3,045.5,0.251,758.4,01.16,0.508
2016-05-20 01:33:00,1897E-3,5C000400,-0724,0835,12174,030.2,045.5,0.251,758.4,01.16,0.508
2016-05-20 01:34:00,1892E-3,5C000400,-0724,0834,12168,030.3,045.5,0.251,758.4,01.16,0.508
2016-05-20 01:35:00,2008E-3,5C000400,-0724,0835,12225,030.3,045.5,0.251,758.4,01.16,0.508
2016-05-20 01:36:00,1996E-3,5C000400,-0724,0834,12306,030.3,045.5,0.251,758.3,01.16,0.508
2016-05-20 01:37:00,1977E-3,5C000400,-0724,0834,12109,030.3,045.5,0.251,758.4,01.16,0.508
2016-05-20 01:38:00,1852E-3,5C000400,-0724,0834,12137,030.3,045.5,0.251,758.4,01.16,0.508
2016-05-20 01:39:00,1825E-3,5C000400,-0724,0834,12142,030.3,045.5,0.251,758.4,01.16,0.508
2016-05-20 01:40:00,1949E-3,5C000400,-0724,0834,12152,030.3,045.5,0.251,758.4,01.16,0.508
2016-05-20 01:41:00,1956E-3,5C000400,-0724,0835,11998,030.3,045.5,0.251,758.4,01.16,0.508
2016-05-20 01:42:00,1902E-3,5C000400,-0724,0834,11918,030.4,045.5,0.251,758.4,01.16,0.508
2016-05-20 01:43:00,1922E-3,5C000400,-0724,0834,12144,030.4,045.5,0.251,758.4,01.16,0.508
2016-05-20 01:44:00,1871E-3,5C000400,-0724,0835,12183,030.4,045.5,0.251,758.4,01.16,0.508
2016-05-20 01:45:00,1974E-3,5C000400,-0724,0834,12128,030.4,045.5,0.251,758.3,01.16,0.508
2016-05-20 01:46:00,1914E-3,5C000400,-0724,0834,12203,030.4,045.5,0.251,758.3,01.16,0.508
2016-05-20 01:47:00,1961E-3,5C000400,-0724,0835,12068,030.4,045.5,0.251,758.3,01.16,0.508
2016-05-20 01:48:00,2043E-3,5C000400,-0724,0835,12118,030.4,045.5,0.251,758.3,01.16,0.508
2016-05-20 01:49:00,1946E-3,5C000400,-0724,0834,12125,030.4,045.5,0.251,758.3,01.16,0.508
2016-05-20 01:50:00,1732E-3,5C000400,-0724,0834,12012,030.4,045.5,0.251,758.3,01.16,0.508
2016-05-20 01:51:00,1899E-3,5C000400,-0724,0834,12106,030.4,045.5,0.251,758.3,01.16,0.508
2016-05-20 01:52:00,2046E-3,5C000400,-0724,0835,12087,030.4,045.5,0.251,758.3,01.16,0.508
2016-05-20 01:53:00,1778E-3,5C000400,-0724,0835,12211,030.5,045.5,0.251,758.3,01.16,0.508
2016-05-20 01:54:00,1975E-3,5C000400,-0724,0835,12178,030.5,045.5,0.251,758.3,01.16,0.508
2016-05-20 01:55:00,1895E-3,5C000400,-0724,0834,12159,030.5,045.5,0.251,758.3,01.16,0.508
2016-05-20 01:56:00,1767E-3,5C000400,-0724,0834,12185,030.5,045.5,0.251,758.3,01.16,0.508
2016-05-20 01:57:00,1814E-3,5C000400,-0724,0834,12102,030.5,045.5,0.251,758.3,01.16,0.508
2016-05-20 01:58:00,1960E-3,5C000400,-0724,0833,12155,030.5,045.5,0.251,758.3,01.16,0.508
2016-05-20 01:59:00,1980E-3,5C000400,-0724,0834,12123,030.5,045.5,0.251,758.2,01.16,0.508
2016-05-20 02:00:00,1894E-3,5C000400,-0724,0834,12332,030.5,045.5,0.251,758.3,01.16,0.508
2016-05-20 02:01:00,1912E-3,5C000400,-0724,0834,12281,030.5,045.5,0.250,758.2,01.16,0.508
2016-05-20 02:02:00,1908E-3,5C000400,-0724,0834,12260,030.5,045.5,0.250,758.2,01.16,0.508
2016-05-20 02:03:00,1831E-3,5C000400,-0724,0834,12094,030.5,045.5,0.250,758.2,01.16,0.508
2016-05-20 02:04:00,1914E-3,5C000400,-0724,0835,12106,030.6,045.5,0.250,758.2,01.16,0.508
2016-05-20 02:05:00,1953E-3,5C000400,-0724,0834,12063,030.6,045.5,0.250,758.2,01.16,0.508
2016-05-20 02:06:00,1817E-3,5C000400,-0724,0835,12140,030.6,045.5,0.250,758.2,01.16,0.508
2016-05-20 02:07:00,1850E-3,5C000400,-0724,0835,12233,030.6,045.5,0.250,758.2,01.16,0.508
2016-05-20 02:08:00,1855E-3,5C000400,-0724,0835,12195,030.6,045.5,0.250,758.1,01.16,0.508
2016-05-20 02:09:00,1842E-3,5C000400,-0724,0834,12151,030.6,045.5,0.251,758.2,01.16,0.508
2016-05-20 02:10:00,1797E-3,5C000400,-0724,0834,12273,030.6,045.5,0.251,758.2,01.16,0.508
2016-05-20 02:11:00,1893E-3,5C000400,-0724,0834,12144,030.6,045.5,0.250,758.2,01.16,0.508
2016-05-20 02:12:00,1947E-3,5C000400,-0724,0834,12151,030.6,045.5,0.250,758.2,01.16,0.508
2016-05-20 02:13:00,1917E-3,5C000400,-0724,0834,12041,030.6,045.5,0.250,758.2,01.16,0.508
2016-05-20 02:14:00,1906E-3,5C000400,-0724,0834,12108,030.6,045.5,0.250,758.2,01.16,0.508
2016-05-20 02:15:00,1969E-3,5C000400,-0724,0834,12103,030.7,045.5,0.250,758.2,01.16,0.508
2016-05-20 02:16:00,1924E-3,5C000400,-0724,0835,12090,030.7,045.5,0.250,758.2,01.16,0.508
2016-05-20 02:17:00,1905E-3,5C000400,-0724,0835,12200,030.7,045.5,0.250,758.2,01.16,0.508
2016-05-20 02:18:00,1972E-3,5C000400,-0724,0835,12241,030.7,045.5,0.250,758.2,01.16,0.508
2016-05-20 02:19:00,1928E-3,5C000400,-0724,0835,12089,030.7,045.5,0.250,758.2,01.16,0.508
2016-05-20 02:20:00,1897E-3,5C000400,-0724,0834,12095,030.7,045.5,0.250,758.2,01.16,0.508
2016-05-20 02:21:00,1964E-3,5C000400,-0724,0834,12077,030.8,045.5,0.250,758.2,01.16,0.508
2016-05-20 02:22:00,2006E-3,5C000400,-0724,0834,12176,030.8,045.5,0.250,758.1,01.16,0.508
2016-05-20 02:23:00,1886E-3,5C000400,-0724,0834,11945,030.8,045.5,0.250,758.2,01.16,0.508
2016-05-20 02:24:00,1864E-3,5C000400,-0724,0834,12166,030.8,045.5,0.250,758.2,01.16,0.508
2016-05-20 02:25:00,1997E-3,5C000400,-0724,0834,12119,030.8,045.5,0.250,758.2,01.16,0.508
2016-05-20 02:26:00,1774E-3,5C000400,-0724,0835,12172,030.8,045.5,0.250,758.1,01.16,0.508
2016-05-20 02:27:00,1875E-3,5C000400,-0724,0834,12205,030.8,045.5,0.250,758.1,01.16,0.508
2016-05-20 02:28:00,2004E-3,5C000400,-0724,0834,12188,030.8,045.5,0.250,758.1,01.16,0.508
2016-05-20 02:29:00,1948E-3,5C000400,-0724,0834,12133,030.8,045.5,0.250,758.1,01.16,0.508
2016-05-20 02:30:00,1897E-3,5C000400,-0724,0835,12225,030.8,045.5,0.250,758.1,01.16,0.508
2016-05-20 02:31:00,1883E-3,5C000400,-0724,0835,12206,030.8,045.5,0.250,758.1,01.16,0.508
2016-05-20 02:32:00,2003E-3,5C000400,-0724,0835,12312,030.9,045.5,0.250,758.1,01.16,0.508
2016-05-20 02:33:00,1934E-3,5C000400,-0724,0834,12185,030.9,045.5,0.250,758.1,01.16,0.508
2016-05-20 02:34:00,1836E-3,5C000400,-0724,0834,12155,030.9,045.5,0.250,758.1,01.16,0.508
2016-05-20 02:35:00,2011E-3,5C000400,-0724,0835,12253,030.9,045.5,0.250,758.1,01.16,0.508
2016-05-20 02:36:00,2002E-3,5C000400,-0724,0835,12125,030.9,045.5,0.250,758.1,01.16,0.508
2016-05-20 02:37:00,1856E-3,5C000400,-0724,0834,12025,030.9,045.5,0.249,758.1,01.16,0.508
2016-05-20 02:38:00,1945E-3,5C000400,-0724,0834,12126,030.9,045.5,0.249,758.1,01.16,0.508
2016-05-20 02:39:00,1865E-3,5C000400,-0724,0835,12227,031.0,045.5,0.249,758.1,01.16,0.508
2016-05-20 02:40:00,1969E-3,5C000400,-0724,0834,12193,031.0,045.5,0.249,758.1,01.16,0.508
2016-05-20 02:41:00,1997E-3,5C000400,-0724,0834,12084,030.9,045.5,0.249,758.0,01.16,0.508
2016-05-20 02:42:00,1869E-3,5C000400,-0724,0834,12074,031.0,045.5,0.249,758.0,01.16,0.508
2016-05-20 02:43:00,1888E-3,5C000400,-0724,0835,12162,030.9,045.5,0.250,758.0,01.16,0.508
2016-05-20 02:44:00,1961E-3,5C000400,-0724,0834,12204,031.0,045.5,0.250,758.0,01.16,0.508
2016-05-20 02:45:00,1880E-3,5C000400,-0724,0834,12201,031.0,045.5,0.250,758.0,01.16,0.508
2016-05-20 02:46:00,2013E-3,5C000400,-0724,0835,11986,031.0,045.5,0.250,758.0,01.16,0.508
2016-05-20 02:47:00,1924E-3,5C000400,-0724,0835,12246,031.0,045.5,0.250,758.0,01.16,0.508
2016-05-20 02:48:00,1878E-3,5C000400,-0724,0835,12078,031.0,045.5,0.250,758.0,01.16,0.508
2016-05-20 02:49:00,1910E-3,5C000400,-0724,0835,12237,031.0,045.5,0.250,758.0,01.16,0.508
2016-05-20 02:50:00,2015E-3,5C000400,-0724,0835,12028,031.0,045.5,0.250,758.0,01.16,0.508
2016-05-20 02:51:00,2024E-3,5C000400,-0724,0834,12243,031.0,045.5,0.250,757.9,01.16,0.508
2016-05-20 02:52:00,1936E-3,5C000400,-0724,0834,12071,031.1,045.5,0.250,757.9,01.16,0.508
2016-05-20 02:53:00,2021E-3,5C000400,-0724,0835,12172,031.0,045.5,0.250,757.9,01.16,0.508
2016-05-20 02:54:00,1944E-3,5C000400,-0724,0835,12190,031.1,045.5,0.250,757.9,01.16,0.508
2016-05-20 02:55:00,1938E-3,5C000400,-0724,0835,12197,031.1,045.5,0.250,757.9,01.16,0.508
2016-05-20 02:56:00,2001E-3,5C000400,-0724,0835,12160,031.1,045.5,0.250,757.9,01.16,0.508
2016-05-20 02:57:00,1898E-3,5C000400,-0724,0835,12235,031.1,045.5,0.250,757.9,01.16,0.508
2016-05-20 02:58:00,1890E-3,5C000400,-0724,0834,12159,031.1,045.5,0.250,757.9,01.16,0.508
2016-05-20 02:59:00,2018E-3,5C000400,-0724,0834,12187,031.1,045.5,0.250,757.9,01.16,0.508
2016-05-20 03:00:00,1832E-3,5C000400,-0724,0834,12200,031.2,045.5,0.249,757.9,01.16,0.508
2016-05-20 03:01:00,1900E-3,5C000400,-0724,0835,12191,031.1,045.5,0.249,757.9,01.16,0.508
2016-05-20 03:02:00,1881E-3,5C000400,-0724,0835,12196,031.1,045.5,0.249,757.9,01.16,0.508
2016-05-20 03:03:00,1840E-3,5C000400,-0724,0835,12101,031.1,045.5,0.249,757.9,01.16,0.508
2016-05-20 03:04:00,2001E-3,5C000400,-0724,0835,12141,031.2,045.5,0.249,757.9,01.16,0.508
2016-05-20 03:05:00,1858E-3,5C000400,-0724,0835,12186,031.2,045.5,0.249,757.9,01.16,0.508
2016-05-20 03:06:00,1857E-3,5C000400,-0724,0834,12089,031.2,045.5,0.249,757.9,01.16,0.508
2016-05-20 03:07:00,2010E-3,5C000400,-0724,0835,11985,031.2,045.5,0.249,757.9,01.16,0.508
2016-05-20 03:08:00,1896E-3,5C000400,-0724,0834,12068,031.2,045.5,0.250,757.9,01.16,0.508
2016-05-20 03:09:00,1833E-3,5C000400,-0724,0835,12072,031.2,045.5,0.249,757.8,01.16,0.508
2016-05-20 03:10:00,1919E-3,5C000400,-0724,0834,12226,031.2,045.5,0.249,757.9,01.16,0.508
2016-05-20 03:11:00,2000E-3,5C000400,-0724,0835,12221,031.3,045.6,0.249,757.8,01.16,0.508
2016-05-20 03:12:00,2025E-3,5C000400,-0724,0835,12165,031.3,045.5,0.249,757.9,01.16,0.508
2016-05-20 03:13:00,1892E-3,5C000400,-0724,0835,12012,031.3,045.5,0.249,757.9,01.16,0.508
2016-05-20 03:14:00,1868E-3,5C000400,-0724,0834,12206,031.3,045.5,0.249,757.9,01.16,0.508
2016-05-20 03:15:00,1884E-3,5C000400,-0724,0834,12142,031.3,045.5,0.249,757.9,01.16,0.508
2016-05-20 03:16:00,1923E-3,5C000400,-0724,0835,12154,031.3,045.5,0.249,757.9,01.16,0.508
2016-05-20 03:17:00,1913E-3,5C000400,-0724,0835,12191,031.3,045.5,0.249,757.9,01.16,0.508
2016-05-20 03:18:00,1837E-3,5C000400,-0724,0834,12193,031.3,045.5,0.249,757.9,01.16,0.508
2016-05-20 03:19:00,1880E-3,5C000400,-0724,0835,12121,031.3,045.5,0.249,757.9,01.16,0.508
2016-05-20 03:20:00,1813E-3,5C000400,-0724,0834,12011,031.3,045.5,0.249,757.9,01.16,0.508
2016-05-20 03:21:00,1945E-3,5C000400,-0724,0834,12293,031.3,045.5,0.249,757.9,01.16,0.508
2016-05-20 03:22:00,1879E-3,5C000400,-0724,0835,12131,031.4,045.5,0.249,757.9,01.16,0.508
2016-05-20 03:23:00,1988E-3,5C000400,-0724,0835,12047,031.4,045.5,0.249,757.8,01.16,0.508
2016-05-20 03:24:00,1984E-3,5C000400,-0724,0835,12156,031.3,045.5,0.249,757.8,01.16,0.508
2016-05-20 03:25:00,1792E-3,5C000400,-0724,0835,12228,031.4,045.5,0.248,757.8,01.16,0.508
2016-05-20 03:26:00,1922E-3,5C000400,-0724,0835,12220,031.4,045.5,0.248,757.8,01.16,0.508
2016-05-20 03:27:00,1875E-3,5C000400,-0724,0836,12190,031.4,045.5,0.249,757.8,01.16,0.508
2016-05-20 03:28:00,1909E-3,5C000400,-0724,0835,12131,031.4,045.5,0.249,757.8,01.16,0.508
2016-05-20 03:29:00,1891E-3,5C000400,-0724,0835,12171,031.4,045.5,0.249,757.8,01.16,0.508
2016-05-20 03:30:00,2027E-3,5C000400,-0724,0835,12264,031.4,045.5,0.249,757.8,01.16,0.508
2016-05-20 03:31:00,2105E-3,5C000400,-0724,0834,12098,031.4,045.5,0.249,757.8,01.16,0.508
2016-05-20 03:32:00,1939E-3,5C000400,-0724,0835,12117,031.4,045.5,0.249,757.8,01.16,0.508
2016-05-20 03:33:00,1948E-3,5C000400,-0724,0834,12127,031.4,045.5,0.249,757.8,01.16,0.508
2016-05-20 03:34:00,1860E-3,5C000400,-0724,0834,12052,031.4,045.5,0.249,757.8,01.16,0.508
2016-05-20 03:35:00,1940E-3,5C000400,-0724,0835,12072,031.5,045.5,0.249,757.8,01.16,0.508
2016-05-20 03:36:00,1962E-3,5C000400,-0724,0834,11845,031.5,045.5,0.249,757.8,01.16,0.508
2016-05-20 03:37:00,1923E-3,5C000400,-0724,0835,12218,031.5,045.5,0.249,757.8,01.16,0.508
2016-05-20 03:38:00,1837E-3,5C000400,-0724,0835,12143,031.5,045.6,0.249,757.7,01.16,0.508
2016-05-20 03:39:00,1785E-3,5C000400,-0724,0835,12090,031.5,045.5,0.248,757.7,01.16,0.508
2016-05-20 03:40:00,1898E-3,5C000400,-0724,0835,12064,031.5,045.5,0.248,757.7,01.16,0.508
2016-05-20 03:41:00,1961E-3,5C000400,-0724,0835,12191,031.5,045.5,0.248,757.7,01.16,0.508
2016-05-20 03:42:00,1989E-3,5C000400,-0724,0835,12159,031.5,045.5,0.249,757.7,01.16,0.508
2016-05-20 03:43:00,1727E-3,5C000400,-0724,0834,12016,031.5,045.5,0.249,757.7,01.16,0.508
2016-05-20 03:44:00,1965E-3,5C000400,-0724,0835,12014,031.5,045.5,0.249,757.7,01.16,0.508
2016-05-20 03:45:00,1842E-3,5C000400,-0724,0835,12131,031.5,045.5,0.249,757.7,01.16,0.508
2016-05-20 03:46:00,1831E-3,5C000400,-0724,0835,12168,031.5,045.5,0.249,757.7,01.16,0.508
2016-05-20 03:47:00,1783E-3,5C000400,-0724,0835,12124,031.5,045.5,0.249,757.7,01.16,0.508
2016-05-20 03:48:00,1891E-3,5C000400,-0724,0834,12031,031.5,045.5,0.248,757.7,01.16,0.508
2016-05-20 03:49:00,1863E-3,5C000400,-0724,0835,12064,031.6,045.5,0.248,757.7,01.16,0.508
2016-05-20 03:50:00,1979E-3,5C000400,-0724,0835,12175,031.6,045.5,0.248,757.7,01.16,0.508
2016-05-20 03:51:00,1946E-3,5C000400,-0724,0835,12268,031.6,045.5,0.248,757.7,01.16,0.508
2016-05-20 03:52:00,1863E-3,5C000400,-0724,0835,12137,031.6,045.6,0.248,757.7,01.16,0.508
2016-05-20 03:53:00,1919E-3,5C000400,-0724,0835,12227,031.6,045.6,0.248,757.6,01.16,0.508
2016-05-20 03:54:00,1927E-3,5C000400,-0724,0834,12103,031.7,045.6,0.248,757.6,01.16,0.508
2016-05-20 03:55:00,1896E-3,5C000400,-0724,0834,12086,031.7,045.5,0.249,757.6,01.16,0.508
2016-05-20 03:56:00,1857E-3,5C000400,-0724,0835,12208,031.8,045.5,0.248,757.6,01.16,0.508
2016-05-20 03:57:00,1906E-3,5C000400,-0724,0835,12268,031.8,045.5,0.248,757.6,01.16,0.508
2016-05-20 03:58:00,1987E-3,5C000400,-0724,0834,12135,031.8,045.6,0.248,757.6,01.16,0.508
2016-05-20 03:59:00,1909E-3,5C000400,-0724,0834,12150,031.8,045.6,0.248,757.6,01.16,0.508
2016-05-20 04:00:00,2032E-3,5C000400,-0724,0835,12262,031.8,045.6,0.248,757.6,01.16,0.508
2016-05-20 04:01:00,1840E-3,5C000400,-0724,0835,12080,031.8,045.5,0.248,757.6,01.16,0.508
2016-05-20 04:02:00,1912E-3,5C000400,-0724,0834,12218,031.8,045.5,0.248,757.6,01.16,0.508
2016-05-20 04:03:00,1938E-3,5C000400,-0724,0835,12200,031.8,045.6,0.248,757.6,01.16,0.508
2016-05-20 04:04:00,1902E-3,5C000400,-0724,0835,12165,031.8,045.6,0.248,757.6,01.16,0.508
2016-05-20 04:05:00,1991E-3,5C000400,-0724,0834,12102,031.8,045.5,0.248,757.6,01.16,0.508
2016-05-20 04:06:00,1941E-3,5C000400,-0724,0835,12077,031.8,045.5,0.248,757.6,01.16,0.508
2016-05-20 04:07:00,1811E-3,5C000400,-0724,0834,12273,031.8,045.6,0.248,757.6,01.16,0.508
2016-05-20 04:08:00,1746E-3,5C000400,-0724,0835,12051,031.9,045.6,0.248,757.5,01.16,0.508
2016-05-20 04:09:00,1770E-3,5C000400,-0724,0835,12268,032.0,045.5,0.248,757.5,01.16,0.508
2016-05-20 04:10:00,1898E-3,5C000400,-0724,0835,12155,032.1,045.5,0.248,757.5,01.16,0.508
2016-05-20 04:11:00,1866E-3,5C000400,-0724,0835,12030,032.1,045.6,0.248,757.5,01.16,0.508
2016-05-20 04:12:00,1883E-3,5C000400,-0724,0835,12005,032.2,045.6,0.247,757.5,01.16,0.508
2016-05-20 04:13:00,2033E-3,5C000400,-0724,0835,12170,032.2,045.6,0.248,757.5,01.16,0.508
2016-05-20 04:14:00,1995E-3,5C000400,-0724,0835,12261,032.2,045.6,0.247,757.5,01.16,0.508
2016-05-20 04:15:00,1879E-3,5C000400,-0724,0834,11991,032.2,045.6,0.247,757.5,01.16,0.508
2016-05-20 04:16:00,1758E-3,5C000400,-0724,0835,12127,032.2,045.6,0.248,757.5,01.16,0.508
2016-05-20 04:17:00,2003E-3,5C000400,-0724,0835,11896,032.1,045.6,0.247,757.5,01.16,0.508
2016-05-20 04:18:00,1776E-3,5C000400,-0724,0836,12094,032.1,045.6,0.247,757.5,01.16,0.508
2016-05-20 04:19:00,1871E-3,5C000400,-0724,0835,12168,032.2,045.6,0.247,757.5,01.16,0.508
2016-05-20 04:20:00,1889E-3,5C000400,-0724,0834,12018,032.2,045.6,0.247,757.5,01.16,0.508